Starlink 31991

operational
NORAD ID: 59963 Int'l Des: 2024-107 Owner: SPXS Country: US Constellation: starlink
LEOCIRCULAR

About Starlink 31991

Description loading...

Live Position

Loading 3D Globe...

Upcoming Passes

Altitude History

Altitude vs Time

uPlot chart will show altitude changes over time

Two-Line Element Set

1 59963U 24107U 25307.67750954 -.00000360 00000-0 -26367-7 0 9998
2 59963 53.1602 290.8302 0001256 93.2476 266.8669 15.30188555 80507
Epoch: Nov 3, 2025 • Age: 10 hours

Current Status

Altitude 475.2 km
Velocity 7.63 km/s
Sub-Earth Point 17.34°N, 16.53°E
Launch Date Jun 5, 2024
Age 1.4 years
Type internet

Technical Details

Classification Payload
Mass 730.00 kg
Dry Mass 700.00 kg
Total Mass 730.00 kg
Length 0.30 m
Diameter 4.10 m
Span 29.00 m
Shape Box + pan
Manufacturer SPXS
Bus Type Starlink V2M
Phase Status In Orbit
Owner/State SPXS/US

Large Constellations

Loading constellations...